Location: Gravenhurst
(44.9196°N, 79.3742°W)
Time: 01:13:03
(UTC-05:00)

Envisat - Pass Details

Date: 30 October 2019
Orbit: 764 x 766 km, 98.1° (Epoch: 13 November)

Event Time Altitude Azimuth Distance (km) Brightness Sun altitude
Rises 18:58:28 0° 157° (SSE) 3,219 6.1 -9.3°
Reaches altitude 10° 19:00:46 10° 154° (SSE) 2,297 5.3 -9.7°
Maximum altitude 19:05:47 66° 73° (ENE) 834 3.0 -10.6°
Drops below altitude 10° 19:10:50 10° 352° (N) 2,312 5.5 -11.5°
Sets 19:13:09 0° 350° (N) 3,242 6.3 -11.9°
